Change the Weather History Date:

Thursday, October 11, 2012

  Actual Average Record
Temperature  
Mean Temperature 50 °F 54 °F  
Max Temperature 67 °F 64 °F 82 °F (2010)
Min Temperature 32 °F 44 °F 28 °F (1996)
Degree Days  
Heating Degree Days 15 12  
Month to date heating degree days 152 110  
Since 1 July heating degree days 286 222  
Cooling Degree Days 0 1  
Month to date cooling degree days 0 11  
Year to date cooling degree days 1225 789  
Moisture  
Dew Point 33 °F    
Average Humidity 56    
Maximum Humidity 88    
Minimum Humidity 31    
Precipitation  
Precipitation 0.05 in 0.09 in 0.25 in (2006)
Month to date precipitation 0.67 1.12  
Year to date precipitation 16.96 26.81  
Sea Level Pressure  
Sea Level Pressure 30.14 in    
Wind  
Wind Speed 10 mph (SW)    
Max Wind Speed 23 mph    
Max Gust Speed 32 mph    
Visibility 10 miles    
Events Rain    
T = Trace of Precipitation, MM = Missing Value Source: NWS Daily Summary

Daily Weather History Graph

Daily Weather History Graph

Search for Another Location

Airport or City:

Trip Planner

Search our weather history database for the weather conditions in past years. The results will help you decide how hot, cold, wet, or windy it might be!

Date:

Astronomy

Oct. 11, 2012 Rise Set
Actual Time 7:00 AM CDT 6:15 PM CDT
Civil Twilight 6:32 AM CDT 6:43 PM CDT
Nautical Twilight 5:59 AM CDT 7:15 PM CDT
Astronomical Twilight 5:27 AM CDT 7:48 PM CDT
Moon 2:34 AM CDT (10/11) 3:55 PM CDT (10/11)
Length of Visible Light 12h 11m
Length of Day
11h 15m
Waning Crescent, 18% of the Moon is Illuminated
Oct 11
Waning Crescent
Oct 15
New
Oct 21
First Quarter
Oct 29
Full
Nov 6
Last Quarter

Hourly Weather History & Observations

Time (CDT) Temp. Windchill Dew Point Humidity Pressure Visibility Wind Dir Wind Speed Gust Speed Precip Events Conditions
12:52 AM 32.0 °F 28.7 °F 28.9 °F 88% 30.18 in 10.0 mi SE 3.5 mph - N/A   Clear
1:52 AM 34.0 °F 29.8 °F 28.9 °F 82% 30.18 in 10.0 mi SSE 4.6 mph - N/A   Clear
2:52 AM 34.0 °F 31.0 °F 28.9 °F 82% 30.17 in 10.0 mi South 3.5 mph - N/A   Clear
3:52 AM 33.1 °F 28.7 °F 28.0 °F 82% 30.16 in 10.0 mi South 4.6 mph - N/A   Clear
4:52 AM 39.0 °F 32.3 °F 30.0 °F 70% 30.15 in 10.0 mi SSW 10.4 mph - N/A   Clear
5:52 AM 42.1 °F 36.1 °F 30.0 °F 62% 30.15 in 10.0 mi SSW 10.4 mph - N/A   Clear
6:52 AM 44.1 °F 38.1 °F 30.0 °F 58% 30.14 in 10.0 mi SSW 11.5 mph 18.4 mph N/A   Clear
7:52 AM 46.0 °F 40.2 °F 30.0 °F 54% 30.14 in 10.0 mi SSW 12.7 mph 20.7 mph N/A   Clear
8:52 AM 48.0 °F - 30.9 °F 52% 30.15 in 10.0 mi SW 12.7 mph 19.6 mph N/A   Clear
9:52 AM 52.0 °F - 32.0 °F 47% 30.13 in 10.0 mi SSW 12.7 mph 20.7 mph N/A   Clear
10:52 AM 57.0 °F - 32.0 °F 39% 30.11 in 10.0 mi SW 13.8 mph 27.6 mph N/A   Clear
11:52 AM 59.0 °F - 32.0 °F 36% 30.10 in 10.0 mi SW 18.4 mph 27.6 mph N/A   Clear
12:52 PM 63.0 °F - 32.0 °F 31% 30.08 in 10.0 mi SW 19.6 mph 28.8 mph N/A   Clear
1:52 PM 64.9 °F - 33.1 °F 31% 30.06 in 10.0 mi SW 19.6 mph 28.8 mph N/A   Clear
3:52 PM 64.9 °F - 35.1 °F 33% 30.05 in 10.0 mi WSW 13.8 mph 20.7 mph N/A   Clear
4:52 PM 64.9 °F - 35.1 °F 33% 30.06 in 10.0 mi WSW 8.1 mph 20.7 mph N/A   Clear
6:22 PM 57.2 °F - 37.4 °F 48% 30.11 in 10.0 mi North 16.1 mph - N/A   Mostly Cloudy
6:52 PM 57.0 °F - 37.0 °F 47% 30.13 in 10.0 mi North 11.5 mph - N/A   Overcast
8:52 PM 50.0 °F - 37.9 °F 63% 30.22 in 10.0 mi North 5.8 mph - N/A   Overcast
10:52 PM 46.0 °F - 42.1 °F 86% 30.26 in 8.0 mi Calm Calm - 0.03 in Rain Light Rain